Powrót do katalogu

STARLINK-5259

AktywnyŁącznośćVLEO
NORAD 54209·PAYLOAD·🇺🇸 United States

Wystrzelony Oct 28, 2022 z Vandenberg Space Force Base

Loading…

Następne Przeloty (najbliższe 24 godziny)

TLE

ŚwieżeSource: CelesTrak SupGP

Epoka: Sep 14, 2026, 21:56 UTC

1 54209C 22141BE  26257.91437500 -.00006405  00000+0 -18324-3 0  2575
2 54209  53.1590 206.2993 0001370  93.2571 300.3631 15.35402375    16

Śledź STARLINK-5259 w czasie rzeczywistym z AllMySat

Download on the App Store